Simultaneous Nadir Overpasses (SNOs) Predictions

Prediction of SNOs between METOP-B and TERRA Satellite Orbit:

Table of predicted SNOs for the next 14.0 days since TLE Epoch: 10/5/2019
Index Date (METOP-B) Time (METOP-B) Lat,Lon (METOP-B) SZA (METOP-B ) Date (TERRA) Time (TERRA) Lat,Lon (TERRA) SZA (TERRA ) Distance(km) Time Diff (sec)
1 10/07/2019 02:38:28 81.32,-172.36 89.74 10/07/2019 02:39:28 81.32,-172.51 89.76 2.43 60
2 10/07/2019 03:29:09 -81.32, -4.95 90.24 10/07/2019 03:28:55 -81.32, -4.98 90.25 0.62 14
3 10/09/2019 22:12:50 81.32,-106.17 90.81 10/09/2019 22:13:43 81.32,-106.14 90.84 0.64 53
4 10/09/2019 23:03:31 -81.32, 61.27 89.17 10/09/2019 23:03:10 -81.32, 61.42 89.17 2.54 21
5 10/12/2019 17:47:12 81.31, -40.00 91.85 10/12/2019 17:47:58 81.31, -39.82 91.90 2.86 46
6 10/12/2019 18:37:51 -81.33, 128.25 88.03 10/12/2019 18:37:24 -81.33, 128.14 88.05 1.88 27
7 10/15/2019 13:21:31 81.32, 26.96 92.98 10/15/2019 13:22:11 81.33, 26.83 92.99 2.26 40
8 10/15/2019 14:12:12 -81.32,-165.57 86.99 10/15/2019 14:11:38 -81.32,-165.55 87.01 0.28 34
9 10/18/2019 08:55:53 81.32, 93.12 93.99 10/18/2019 08:56:26 81.31, 93.06 94.00 1.10 33




NCC Satellite Simultaneous Nadir Overpasses (SNOs) Prediction Service
